[Iaude] MPEC F50: 2022 FF1 [a=1.24,e=0.24,i=6.8,H=29.1]

mpec at marsden.cfa.harvard.edu mpec at marsden.cfa.harvard.edu
Fri Mar 25 07:28:08 EDT 2022


M.P.E.C. 2022-F50                                Issued 2022 March 25, 11:26 UT

     The Minor Planet Electronic Circulars contain information on unusual
         minor planets and routine data on comets.  They are published
    on behalf of Division F of the International Astronomical Union by the
          Minor Planet Center, Smithsonian Astrophysical Observatory,
                          Cambridge, MA 02138, U.S.A.

             Prepared using the Tamkin Foundation Computer Network

                              MPC at CFA.HARVARD.EDU
            URL https://www.minorplanetcenter.net/    ISSN 1523-6714

                                    2022 FF1                                    


Observations:
     K22F01F* C2022 03 23.30899111 15 04.18 -06 40 27.2          21.48GVEF050V00
     K22F01F  C2022 03 23.31387911 15 06.12 -06 39 33.8                VEF050V00
     K22F01F  C2022 03 23.31873811 15 08.06 -06 38 41.4          21.46GVEF050V00
     K22F01F  C2022 03 23.32359311 15 09.93 -06 37 49.9          22.12GVEF050V00
     K22F01F KC2022 03 23.36829311 15 28.00 -06 29 39.1          21.37GVEF050I52
     K22F01F KC2022 03 23.37724611 15 31.80 -06 28 00.6                VEF050I52
     K22F01F KC2022 03 23.38619711 15 35.67 -06 26 19.9          21.77GVEF050I52
     K22F01F KC2022 03 24.33569811 25 25.89 -03 03 08.4          21.11GVEF050I52
     K22F01F KC2022 03 24.33835611 25 27.43 -03 02 28.4          21.15GVEF050I52
     K22F01F 1C2022 03 24.94399 11 33 33.44 -00 17 13.0          21.2 VXEF050033
     K22F01F 1C2022 03 24.94479 11 33 34.06 -00 16 57.7          21.2 VXEF050033
     K22F01F 1C2022 03 24.94560 11 33 34.65 -00 16 43.3          21.1 VXEF050033
     K22F01F 1C2022 03 24.94640 11 33 35.27 -00 16 28.6          20.7 VXEF050033
     K22F01F KC2022 03 25.02950711 34 42.00 +00 09 53.7          20.7 GXEF050I93
     K22F01F KC2022 03 25.04107811 34 50.93 +00 13 33.0          20.6 GXEF050I93
     K22F01F KC2022 03 25.05272511 34 59.92 +00 17 14.4          20.4 GXEF050I93
     K22F01F KC2022 03 25.20332111 37 44.29 +01 07 42.5          20.87GVEF050I52
     K22F01F KC2022 03 25.20514711 37 45.81 +01 08 19.6          21.35GVEF050I52

Observer details:
033 Karl Schwarzschild Observatory, Tautenburg.  Observers S. Melnikov, C.
    Hoegner, U. Laux, F. Ludwig, B. Stecklum.  Measurer B. Stecklum.  1.34-m
    f/3 Schmidt + CCD.
I52 Steward Observatory, Mt. Lemmon Station.  Observer K. W. Wierzchos.
    Measurers E. J. Christensen, G. A. Farneth, J. B. Fazekas, D. C. Fuls, A.
    R. Gibbs, A. D. Grauer, H. Groeller, J. K. Hogan, R. A. Kowalski, S. M.
    Larson, G. J. Leonard, D. Rankin, R. L. Seaman, A. Serrano, F. C. Shelly,
    K. W. Wierzchos.
I93 St Pardon de Conques.  Observer F. Losse.  0.40-m f/3.7 reflector + CCD.
V00 Kitt Peak-Bok.  Observer H. Groeller.  Measurers M. J. Brucker, E. J.
    Christensen, C. E. Woodward, G. A. Farneth, J. B. Fazekas, D. C. Fuls, A.
    R. Gibbs, A. D. Grauer, H. Groeller, R. A. Kowalski, S. M. Larson, G. J.
    Leonard, R. S. McMillan, D. Rankin, R. L. Seaman, A. Serrano, F. C.
    Shelly, K. W. Wierzchos.  2.25-m reflector + CCD.

Orbital elements:
2022 FF1                                                 Earth MOID = 0.0102 AU
Epoch 2022 Jan. 21.0 TT = JDT 2459600.5                 Veres                   
M 284.48129              (2000.0)            P               Q                  
n   0.71105561     Peri.   48.50732     -0.60591768     +0.79547980             
a   1.2431790      Node   184.22556     -0.76052975     -0.58243404             
e   0.2367050      Incl.    6.77887     -0.23336294     -0.16727963             
P   1.39           H   29.10          G   0.15           U   7                  
Residuals in seconds of arc
220323 V00  0.0   0.1+    220323 I52  0.8-  0.7-    220324 033  0.2+  0.1+
220323 V00  0.1+  0.4+    220324 I52  0.2-  0.2-    220325 I93  0.0   0.1+
220323 V00  0.2+  0.0     220324 I52  0.2+  0.1+    220325 I93  0.6+  0.3+
220323 V00 (0.8-  1.4-)   220324 033  0.2-  0.1-    220325 I93  0.0   0.3+
220323 I52  1.2-  0.4-    220324 033  0.1+  0.5+    220325 I52  0.3-  0.2-
220323 I52  1.2-  1.5-    220324 033  0.2-  0.1+    220325 I52  0.3+  0.2+

Ephemeris:
2022 FF1                 a,e,i = 1.24, 0.24, 7                   q = 0.9489
Date    TT    R. A. (2000) Decl.     Delta      r    Elong.  Phase     V
2022 02 23    10 33 06.1 -19 28 37   0.1425  1.1154   150.4    26.0    26.3
...
2022 03 10    10 37 30.2 -19 03 18   0.07636 1.0623   154.4    23.8    24.8
...
2022 03 18    10 49 11.2 -15 19 36   0.04439 1.0363   157.8    21.3    23.5
...
2022 03 24    11 21 47.1 -04 18 19   0.02203 1.0183   167.3    12.4    21.6
2022 03 25    11 34 22.2 +00 05 54   0.01864 1.0154   169.8    10.0    21.1
2022 03 26    11 52 21.0 +06 21 59   0.01550 1.0126   169.4    10.4    20.7
...
2022 04 01    19 23 06.9 +51 13 00   0.01508 0.9966    79.9    99.2    23.6
...
2022 04 09    21 34 16.1 +35 03 46   0.04314 0.9782    56.4   121.5    27.2
...
2022 04 24    22 08 57.2 +28 48 48   0.1000  0.9547    56.9   118.0    28.7

M. P. C. Staff               (C) Copyright 2022 MPC           M.P.E.C. 2022-F50




More information about the Iaude mailing list